Wind_Speed
22 21 20 19 19 20 21 20 18 17 17 17 17 16 16 15 14 12 12 11 11 10 10 9 7 6 6 7 7 6 6 7 8 10 11 11 9 7 6 5 4 2 2 2 2 1 2 2 4 7 6 3 4 5 7 8 6 2 4 4 4 1
23 22 21 20 20 20 21 19 17 17 17 17 17 16 16 15 14 13 12 11 11 10 9 9 7 6 5 6 5 5 5 6 8 9 10 9 8 7 6 5 4 3 1 0 1 1 2 2 2 4 4 2 3 4 5 5 4 1 3 6 4 2
23 23 22 20 20 20 20 19 17 16 17 17 17 17 16 15 14 13 13 12 11 11 10 8 7 6 5 5 4 5 5 5 6 8 9 9 8 7 6 6 5 4 3 2 3 2 2 3 2 3 3 2 1 4 5 4 4 2 3 7 5 4
25 24 22 20 20 21 21 20 17 16 17 17 17 17 15 14 13 13 12 11 11 12 11 9 9 8 4 4 4 4 5 5 4 5 7 9 9 8 8 7 7 6 6 5 4 3 5 7 6 5 5 5 2 3 4 5 7 7 5 7 7 5
25 24 21 21 21 22 22 21 19 17 17 17 17 16 15 15 14 14 12 10 11 12 11 10 11 9 5 4 4 3 4 4 4 4 3 6 6 7 8 9 9 8 7 7 7 7 9 10 9 8 7 6 5 4 6 7 8 8 5 7 7 5
25 23 22 21 21 22 21 20 20 19 18 18 17 17 16 16 15 14 13 11 11 11 10 10 9 9 7 4 4 3 3 2 2 2 1 3 5 5 4 7 9 8 7 6 8 11 12 12 10 9 8 8 8 7 8 7 8 8 6 7 7 6
25 23 21 21 21 21 21 20 20 19 18 17 17 17 17 16 14 14 12 11 11 11 10 9 8 9 8 6 6 5 5 6 5 5 5 3 7 8 5 6 10 10 9 7 9 12 12 12 11 11 11 10 10 9 9 8 8 8 8 9 8 8
24 24 22 22 22 21 20 20 20 19 18 17 17 17 16 16 14 14 12 11 12 11 10 9 9 8 8 8 9 8 7 8 6 7 8 5 7 9 7 8 10 11 10 9 11 12 12 12 12 13 13 12 11 10 10 10 10 9 8 9 9 10
24 24 23 23 21 20 20 20 21 21 17 17 17 15 15 15 15 15 12 11 12 11 9 9 9 7 8 8 7 7 7 7 6 6 8 7 7 7 7 9 9 9 9 10 11 12 12 12 12 12 13 12 12 11 11 12 11 10 9 10 11 12
24 22 22 23 21 20 20 20 20 20 18 17 16 15 14 14 14 14 13 11 11 11 9 8 8 7 8 8 6 7 7 7 7 5 5 6 6 6 7 8 8 9 9 11 11 10 12 12 11 12 13 13 13 13 13 13 12 11 11 12 13 12
23 21 21 22 19 18 19 20 19 18 19 17 16 17 14 13 14 13 13 11 11 13 11 7 7 8 9 9 7 7 8 8 7 5 5 7 7 7 7 7 8 9 9 11 12 10 10 11 12 12 13 13 13 14 14 13 13 12 12 12 12 13
23 20 21 20 17 17 17 19 19 16 17 16 15 17 14 12 13 12 12 11 11 13 11 8 8 8 9 9 8 9 9 8 7 6 7 8 8 8 7 7 10 10 11 12 14 12 11 12 13 13 13 14 12 12 15 16 16 15 14 14 14 16
23 22 21 19 17 18 16 18 18 14 16 15 13 15 13 13 13 12 12 11 11 12 11 9 10 10 10 9 8 9 9 9 9 9 8 10 10 9 8 9 11 11 13 14 14 13 13 14 14 14 14 15 15 14 13 14 17 17 17 17 16 16
22 23 20 18 18 18 16 17 17 13 15 15 13 13 13 13 12 12 12 11 11 11 10 9 10 10 10 9 7 7 7 7 8 8 8 9 10 9 9 10 11 11 13 14 13 14 15 15 15 15 15 16 17 16 14 12 14 18 18 18 16 16
23 22 18 18 18 17 16 17 16 14 15 15 14 13 13 14 12 12 12 11 11 9 9 9 8 8 8 7 7 6 6 5 6 6 7 7 8 8 8 9 10 10 12 13 13 14 16 16 16 17 17 17 17 17 16 15 14 16 19 19 17 18
24 21 17 19 17 15 17 16 16 16 16 15 13 12 13 14 12 11 11 11 11 10 10 9 8 8 7 6 6 6 5 5 5 5 5 6 6 6 7 8 9 10 11 12 12 14 15 15 16 17 17 18 18 18 18 17 17 16 17 19 20 20
23 19 17 19 16 15 17 15 14 17 17 14 12 12 13 13 12 11 11 11 11 11 10 9 8 7 6 6 6 5 5 5 5 5 6 6 6 6 7 8 9 10 11 12 12 13 14 14 15 16 16 17 18 19 19 19 19 18 19 20 23 23
21 17 17 17 14 15 15 12 13 15 15 13 12 13 13 12 12 11 11 11 11 11 9 8 8 6 6 6 5 5 5 5 5 6 6 5 6 7 8 9 10 11 11 11 13 13 14 15 15 15 16 16 17 17 19 19 19 20 21 21 23 25
19 17 17 14 13 13 10 8 11 12 13 14 14 13 13 13 12 11 11 11 11 11 9 8 7 7 7 7 5 5 6 6 5 6 7 7 7 8 9 10 11 12 12 13 14 14 15 16 16 16 16 16 17 18 19 20 20 20 21 22 23 24
20 20 18 15 16 15 11 8 10 9 7 11 14 14 13 13 12 11 10 11 11 10 9 8 8 8 7 7 6 5 6 6 6 7 8 8 8 9 9 9 10 12 13 14 15 16 16 16 17 18 18 19 19 20 20 20 21 22 22 22 22 22
24 25 23 21 21 21 18 15 16 13 7 7 9 11 13 12 11 11 11 12 10 9 9 9 8 8 7 6 6 5 6 7 8 8 8 8 9 10 10 10 11 12 13 14 15 16 16 16 16 15 15 17 19 20 20 20 21 23 23 23 23 22
27 26 24 23 22 21 19 17 18 17 13 9 9 11 11 13 12 12 12 11 10 9 9 8 8 7 6 5 4 5 6 7 8 8 8 9 9 10 11 12 12 13 14 15 16 17 17 14 12 12 11 10 13 16 17 20 23 24 23 23 23 22
25 23 20 21 21 20 18 17 16 16 15 13 11 11 11 11 13 12 12 11 10 10 8 8 8 6 5 5 5 5 5 5 7 8 8 9 10 11 12 13 13 14 14 15 15 16 16 12 11 12 11 7 6 7 10 12 16 19 20 20 22 21
23 21 20 21 21 19 17 16 15 15 13 12 13 8 10 9 13 11 12 10 9 9 8 7 7 5 4 4 4 4 4 5 6 8 8 9 10 11 11 11 12 13 13 14 15 15 15 13 12 11 7 4 4 5 5 4 7 10 12 15 19 20
22 22 21 21 20 19 17 16 14 13 13 11 12 9 9 10 12 12 11 11 9 8 7 5 4 3 2 2 3 4 5 6 6 7 7 9 9 10 11 10 11 11 11 12 13 15 15 14 14 13 9 6 5 4 3 6 10 9 8 10 15 18
22 22 21 20 18 18 18 17 17 15 14 13 13 13 13 14 12 12 11 10 9 7 5 4 3 2 1 2 3 4 5 6 7 7 7 8 8 9 10 10 11 11 12 12 13 15 15 15 15 15 13 12 11 8 5 6 6 4 7 12 13 14
20 18 18 19 18 16 17 18 18 16 14 14 14 15 18 14 12 12 11 11 9 7 4 3 3 2 1 2 4 4 5 6 6 7 8 9 9 9 10 11 12 12 13 14 15 15 15 16 16 15 14 14 15 13 10 8 4 3 6 8 10 12
19 15 16 19 17 13 15 18 17 15 13 11 11 15 16 13 12 12 12 9 8 7 4 1 1 1 1 2 4 5 5 5 6 7 9 9 10 10 10 12 12 13 14 14 15 16 16 17 16 16 17 17 16 14 13 12 10 8 5 4 7 11
20 16 15 17 15 12 13 16 15 14 12 9 9 11 13 14 11 12 11 8 7 6 4 2 2 1 1 2 3 4 5 6 7 8 9 9 10 10 11 12 13 13 14 15 15 16 16 16 16 17 18 19 18 16 15 14 12 11 7 6 6 6
21 17 16 17 15 13 13 15 14 12 10 9 7 8 10 14 11 11 11 8 8 5 3 2 2 2 1 2 2 3 4 5 7 8 9 9 10 11 12 13 13 13 14 15 15 15 16 17 18 19 19 18 18 15 13 11 10 10 8 7 6 6
22 19 18 18 16 14 15 15 13 12 10 11 10 7 7 13 12 11 11 8 7 5 3 3 1 1 0 1 2 4 4 5 6 8 9 9 10 11 12 13 13 14 14 14 15 16 17 18 18 18 18 17 17 15 12 10 11 12 9 6 7 6
23 20 20 20 19 17 17 15 13 13 11 10 8 11 11 12 11 10 10 7 6 4 3 2 2 2 1 1 2 4 5 5 7 8 8 9 10 11 12 14 14 15 15 15 16 16 17 18 18 19 19 18 18 17 15 12 13 15 13 12 9 5
23 22 24 23 21 20 18 17 16 13 9 9 6 13 12 10 10 8 8 6 5 3 2 2 1 1 1 3 3 4 4 5 6 7 8 10 11 12 13 14 14 14 15 15 16 17 17 19 19 19 20 20 20 19 17 15 15 16 15 16 12 6
24 23 25 23 22 21 19 18 17 15 12 11 6 12 8 10 9 7 7 6 4 3 3 2 1 1 1 2 3 3 4 5 6 7 8 9 10 11 12 13 13 14 15 15 16 17 18 19 19 20 20 20 20 19 18 16 16 16 14 14 12 8
24 22 23 24 23 21 19 17 17 17 17 16 10 10 5 7 8 7 6 4 4 4 4 3 1 1 1 1 2 3 3 5 6 6 7 9 10 11 12 13 13 14 15 16 17 17 18 19 19 20 19 18 19 19 19 18 16 15 14 13 13 12
23 23 25 26 24 21 19 18 19 19 19 18 13 9 5 7 7 7 6 4 3 3 4 3 1 0 0 1 2 3 3 5 6 7 8 9 10 11 13 13 13 14 15 16 17 18 19 20 20 19 17 17 19 18 18 19 18 16 16 15 14 15
23 25 26 25 24 22 21 19 18 17 18 17 13 10 8 7 6 6 5 4 3 3 3 4 2 0 0 1 2 3 4 5 6 7 8 9 9 11 11 12 13 14 16 17 18 19 19 20 19 18 17 16 16 17 17 17 17 16 16 16 15 15
Wind_Direction
146 146 145 148 152 158 160 157 155 154 156 158 159 160 159 158 155 152 151 150 145 139 131 123 112 102 96 90 87 100 130 152 166 169 169 172 175 175 175 172 167 146 98 66 60 92 140 120 106 128 136 102 41 28 29 20 353 65 129 212 227 244
148 149 148 148 150 159 161 156 157 157 158 162 162 163 163 161 160 159 159 155 152 148 132 130 131 121 104 95 89 84 107 140 167 177 179 181 186 190 192 196 195 199 195 31 324 252 160 161 149 154 153 119 35 24 16 359 325 9 159 204 212 246
151 151 149 149 151 159 157 155 160 159 160 165 165 166 165 165 165 165 164 162 162 157 150 150 150 147 124 106 105 87 94 120 157 177 189 194 202 208 213 219 223 233 234 261 283 223 213 263 254 219 207 202 28 23 357 312 278 304 230 222 234 253
152 152 150 150 153 155 154 156 161 161 164 167 169 169 170 170 170 171 169 171 168 158 161 163 158 166 160 127 129 115 110 112 136 167 191 202 211 219 225 232 235 241 249 257 266 234 230 249 257 260 257 237 244 349 312 262 255 283 267 238 248 259
153 152 151 152 154 155 156 160 162 167 169 169 172 173 175 177 175 176 174 173 164 154 161 166 166 173 167 148 151 143 126 116 115 126 174 203 213 226 233 242 245 247 258 258 253 254 244 237 240 253 268 266 260 275 271 259 265 287 283 242 249 264
155 154 154 154 155 156 159 163 165 172 174 173 176 176 179 183 182 181 177 171 161 158 164 167 169 169 173 171 155 155 151 156 150 140 181 203 210 238 265 248 242 253 274 267 246 251 249 240 235 238 247 256 256 255 254 255 265 275 283 267 259 265
157 156 156 155 155 158 161 164 167 172 175 176 178 178 181 185 188 183 175 172 165 166 167 166 170 171 188 192 176 191 196 191 204 214 230 230 213 232 283 257 231 241 262 263 253 254 250 242 241 243 243 240 240 248 248 249 258 261 272 273 261 261
160 159 158 156 156 161 164 166 168 171 173 175 176 177 181 182 184 180 176 175 167 170 173 171 174 175 190 196 193 207 205 192 200 214 221 232 223 224 247 255 240 236 247 254 259 263 258 248 244 246 248 247 244 243 243 249 257 258 264 267 260 264
161 163 162 156 158 165 167 167 167 170 174 174 173 174 176 176 177 178 177 177 172 175 182 180 178 180 190 197 193 192 195 195 205 208 205 222 237 235 236 247 251 245 250 256 259 266 269 263 252 247 244 250 256 248 244 248 251 252 258 264 268 269
162 165 160 155 162 169 167 165 164 170 174 172 174 175 171 168 171 176 175 175 181 176 171 177 183 187 187 190 186 183 190 191 205 205 188 214 231 243 245 244 254 254 256 260 259 263 271 269 263 259 249 246 250 245 245 246 245 246 247 256 266 267
164 164 157 158 167 168 163 163 166 172 172 170 175 173 167 167 169 174 175 176 185 177 165 172 188 196 189 189 190 189 195 187 199 210 203 227 228 227 241 246 255 255 256 264 266 270 275 272 272 270 262 259 252 245 246 243 241 243 240 248 261 265
164 161 157 165 170 162 159 161 168 173 169 170 167 162 164 171 170 173 179 178 181 179 177 183 188 193 191 195 198 195 204 199 198 206 208 229 235 232 238 247 256 254 253 261 266 273 277 275 278 276 270 275 275 265 259 249 244 240 235 239 249 259
162 160 158 166 167 160 159 160 168 172 171 174 158 155 168 171 171 177 179 176 178 181 189 196 190 191 190 198 208 206 213 212 209 218 222 229 238 242 245 248 256 258 258 266 268 267 267 268 273 275 270 272 276 275 271 259 248 240 237 238 240 249
157 160 161 161 161 159 161 162 168 168 169 173 158 161 174 172 178 182 177 179 183 183 188 195 195 198 193 195 209 210 220 223 220 230 238 239 242 248 256 257 260 263 263 269 268 260 262 264 268 271 269 268 269 273 274 265 251 245 244 243 239 242
156 164 163 156 158 161 162 161 167 170 168 168 163 169 176 176 180 179 179 183 182 180 186 193 198 205 202 199 209 211 221 233 226 231 244 252 252 252 261 264 267 270 270 272 270 265 262 261 262 263 264 266 266 269 271 266 259 254 248 246 242 241
156 166 162 155 160 161 162 165 167 168 165 163 167 175 177 177 178 176 179 185 183 183 189 195 198 208 206 198 210 211 209 217 219 227 238 246 252 255 263 268 271 274 277 280 279 275 269 265 265 264 263 265 265 265 268 265 262 257 247 246 245 244
157 164 156 156 162 158 163 169 161 159 161 163 172 177 176 175 175 178 181 186 189 186 188 193 193 201 200 195 209 209 203 212 219 228 233 238 247 257 263 268 272 272 273 278 279 279 279 276 274 271 270 269 266 266 268 267 263 261 256 254 251 249
156 155 150 157 159 153 165 169 147 152 162 167 175 175 177 178 177 182 183 187 192 187 186 187 185 192 194 196 210 211 211 219 221 230 240 248 252 257 262 266 271 271 269 272 275 277 279 282 281 280 277 274 271 269 270 270 266 263 262 261 256 254
149 146 149 151 144 146 167 161 139 154 169 174 179 175 178 181 180 186 185 187 190 183 180 178 181 192 198 200 208 214 219 226 230 235 245 254 255 259 263 263 267 270 272 273 275 275 278 282 283 282 281 278 277 275 273 272 269 263 259 260 260 259
143 141 147 146 143 154 167 153 147 169 193 191 186 178 180 183 181 185 184 182 181 173 174 180 186 192 201 206 208 218 219 221 234 238 242 250 256 261 264 267 268 271 276 278 279 277 277 281 283 284 283 281 277 274 273 271 267 262 257 258 260 260
148 150 158 162 159 167 172 166 165 180 220 227 207 194 183 182 183 181 178 176 174 172 178 184 187 191 200 202 197 220 227 223 236 243 243 249 258 262 265 273 275 273 277 280 281 281 281 284 285 285 284 285 282 276 272 269 265 262 258 255 255 258
158 158 162 167 168 170 172 172 172 177 187 193 220 240 214 186 180 173 171 173 174 177 183 184 188 197 206 205 203 230 237 235 246 253 254 256 261 265 265 269 272 275 276 278 280 283 287 285 278 280 288 295 292 286 278 270 264 259 255 254 254 255
158 157 157 164 171 173 169 171 175 175 176 177 194 241 251 195 169 167 170 173 178 177 180 184 186 195 204 213 223 235 246 257 263 265 268 269 269 273 274 272 274 277 280 281 284 287 287 280 273 286 298 296 291 300 289 274 265 259 255 256 258 256
154 157 158 166 171 173 170 168 173 171 173 179 176 204 262 213 165 166 171 170 177 172 175 185 182 187 198 225 243 251 266 275 282 283 287 292 293 293 295 293 286 285 288 291 293 295 294 290 286 288 295 299 303 302 281 316 336 301 277 262 258 257
157 162 165 172 170 167 166 163 169 166 163 174 161 161 241 226 170 166 171 168 171 165 167 173 169 188 204 251 269 280 286 284 292 297 298 307 312 315 319 319 311 306 306 303 302 304 304 305 299 285 275 278 297 292 280 352 352 328 306 281 269 267
159 165 166 169 167 164 162 162 167 165 163 166 148 156 208 213 174 168 170 161 158 151 159 175 165 180 207 271 283 289 292 294 303 309 312 313 316 321 323 325 322 320 318 315 316 314 311 312 311 301 285 271 272 276 280 326 334 311 309 298 284 278
158 163 164 164 166 167 163 163 166 165 167 164 154 176 201 196 168 162 157 151 152 145 155 201 178 149 163 293 303 303 303 307 313 316 315 314 314 313 314 314 313 314 315 315 316 313 312 316 318 315 306 293 288 284 275 283 291 286 307 299 286 283
163 164 166 166 169 171 162 163 165 161 167 175 186 195 186 168 156 152 148 149 152 145 147 178 144 107 352 323 323 322 320 316 317 317 313 313 311 307 307 309 308 310 310 310 310 308 309 313 314 311 314 314 309 301 293 289 281 277 288 296 295 291
168 166 167 171 171 170 162 163 166 167 187 213 231 209 166 149 152 147 148 149 142 145 153 154 132 86 354 336 330 326 324 319 321 321 316 316 314 311 311 310 310 310 308 307 306 305 304 306 308 308 311 313 312 310 309 303 292 286 285 287 296 297
166 165 168 172 169 169 164 163 170 179 200 197 194 216 170 147 151 148 146 145 138 139 132 123 117 89 24 338 336 333 331 327 328 327 323 323 320 317 316 315 314 313 312 311 308 307 306 304 304 302 302 305 306 308 311 312 310 304 293 280 284 289
166 165 167 169 167 174 170 166 170 171 179 160 154 236 207 149 150 149 140 137 133 127 118 123 125 106 78 330 327 327 332 331 333 332 326 324 322 319 320 320 321 319 317 316 313 311 308 306 304 301 302 303 302 306 311 314 316 313 299 275 281 291
167 166 166 167 168 173 169 165 164 162 174 151 144 251 235 156 145 144 138 138 132 123 132 146 136 114 76 5 331 326 333 332 333 336 331 328 324 322 321 320 320 319 316 313 311 310 307 306 308 307 308 309 306 305 305 301 301 300 290 276 275 279
168 169 167 168 169 170 164 163 162 159 167 137 144 249 234 144 129 133 127 127 125 125 137 136 131 105 40 357 343 332 335 336 335 336 332 328 324 321 321 319 318 316 313 311 310 308 306 306 309 310 310 310 308 303 299 297 294 294 291 285 282 281
165 166 166 165 168 168 163 164 160 153 151 132 154 240 219 126 121 121 112 110 111 122 122 108 84 60 344 326 341 332 332 339 336 332 331 330 328 327 326 324 322 318 315 314 313 310 310 311 313 315 314 312 310 306 302 304 302 300 300 293 289 289
160 161 162 160 161 162 158 156 150 147 146 136 156 217 198 118 120 118 113 112 115 134 132 117 92 39 320 307 345 333 331 343 344 344 342 341 340 337 334 333 331 328 325 323 321 320 322 323 321 320 319 314 312 312 313 316 315 310 304 296 294 295
157 156 157 157 156 155 150 146 142 142 142 138 154 185 158 119 120 118 121 120 119 152 168 162 139 56 298 348 358 347 344 350 358 359 351 348 345 341 339 338 337 335 333 331 331 332 334 334 329 326 328 325 320 325 327 325 321 316 309 303 304 307
151 153 154 153 151 146 139 136 135 136 137 138 148 154 137 124 118 119 132 140 136 142 177 189 182 167 171 351 3 14 5 360 6 3 359 355 349 346 343 339 339 339 338 339 340 339 340 343 343 344 347 344 340 347 349 342 335 330 323 315 310 309
Height
787 789 790 791 793 795 797 798 799 801 802 803 804 806 808 809 810 811 812 813 813 814 814 815 815 815 816 816 816 817 817 817 818 819 820 821 821 822 822 823 823 823 824 824 824 824 824 824 825 825 825 825 824 824 823 821 822 823 822 821 821 822
787 789 790 791 793 794 796 798 799 800 802 803 805 807 808 809 810 811 812 813 814 814 815 815 815 816 816 816 817 817 817 818 819 819 820 821 822 822 823 823 823 824 824 824 824 824 824 824 825 825 825 825 824 824 823 822 823 823 821 821 821 822
786 788 789 791 792 794 796 797 799 800 802 803 805 806 808 809 810 811 812 813 814 814 815 816 816 817 817 817 817 818 818 818 819 820 821 821 822 822 823 823 824 824 824 824 824 824 824 824 825 825 825 824 824 824 824 824 824 823 822 821 821 821
786 787 788 790 792 793 795 797 799 800 801 803 804 806 807 809 810 811 812 813 814 814 816 817 817 818 817 818 818 818 818 818 819 820 821 821 822 822 823 823 823 824 824 824 824 824 824 824 824 824 825 824 824 824 824 824 824 824 823 821 821 821
785 786 788 789 791 792 794 796 798 799 801 802 804 806 807 809 810 811 812 813 814 815 816 817 818 818 818 818 818 818 819 819 819 820 821 821 821 822 822 823 823 823 824 824 824 824 824 825 824 824 824 824 824 824 825 824 824 824 823 821 821 822
784 785 787 788 790 792 793 795 797 799 800 802 804 805 807 808 809 811 812 813 814 815 816 817 817 818 818 818 818 818 818 819 819 820 820 821 821 821 822 822 822 823 823 823 823 823 824 824 824 823 823 824 824 824 824 824 823 823 822 822 822 822
782 784 786 787 789 791 793 795 796 798 800 802 803 805 807 808 809 810 811 813 814 815 816 817 817 818 818 818 818 818 819 819 819 820 820 821 821 821 822 822 822 822 822 822 822 822 823 823 823 823 823 823 823 824 824 824 823 823 822 822 822 822
781 783 784 786 788 790 792 794 796 798 799 801 803 805 806 807 809 810 811 812 813 815 816 816 817 817 818 818 818 818 818 819 820 820 821 821 821 821 822 821 822 822 821 822 822 822 822 822 821 822 822 822 822 822 822 823 823 823 822 821 821 821
780 781 783 785 788 790 792 794 795 797 799 801 803 804 806 807 809 810 811 812 813 814 815 816 816 817 818 818 818 818 819 819 819 820 820 821 821 822 822 821 822 822 822 822 821 821 821 820 820 820 821 821 822 821 821 821 821 822 822 821 820 821
779 781 783 784 787 789 791 793 795 797 799 801 803 804 806 807 809 810 811 812 812 813 814 815 816 817 817 818 817 818 818 818 819 819 820 820 821 821 821 821 821 821 821 821 821 820 820 820 820 820 820 820 821 820 819 820 820 821 821 821 819 820
779 780 782 784 787 789 791 793 795 797 799 801 803 804 806 808 809 810 810 812 812 813 814 815 816 817 817 817 817 817 818 818 818 819 819 819 820 820 820 820 820 820 820 819 819 819 819 818 818 819 819 819 819 818 818 818 819 819 819 819 818 818
778 780 782 785 787 789 791 793 796 798 799 801 803 804 806 808 809 810 810 811 812 813 814 815 816 816 816 817 817 817 817 817 818 818 819 819 819 819 819 819 819 819 819 818 818 818 818 818 817 817 817 818 817 817 817 817 818 818 818 818 817 817
778 780 783 785 787 790 792 794 796 798 800 802 803 804 806 808 809 809 810 811 812 813 814 815 815 816 816 817 817 817 817 817 817 817 818 818 818 818 819 819 819 819 818 818 818 817 817 817 816 816 816 817 816 816 815 815 816 816 816 816 816 816
778 781 783 786 788 791 793 795 797 798 800 802 803 805 807 808 809 809 811 812 812 813 814 815 815 816 816 816 816 816 816 816 817 817 817 817 817 818 818 818 818 818 818 817 817 816 816 816 815 815 815 815 815 815 814 814 814 814 815 814 815 815
778 782 785 787 790 792 795 796 798 799 801 803 804 806 807 808 809 810 811 812 813 814 814 815 816 816 816 816 816 816 816 816 816 816 816 816 816 817 817 817 817 817 816 816 816 815 815 814 814 814 814 814 813 813 813 813 813 813 813 813 813 813
780 784 786 788 792 794 795 797 799 800 801 803 805 806 807 809 810 811 812 813 813 814 815 816 816 816 816 816 816 816 816 815 815 815 816 815 815 816 816 816 816 816 815 815 815 814 814 813 813 812 812 812 812 812 811 812 812 812 812 811 811 811
782 785 787 790 793 795 797 798 799 800 802 804 806 807 808 810 811 812 813 813 813 814 815 815 816 816 816 816 816 815 815 815 815 815 815 815 815 815 815 815 815 815 815 814 814 813 813 812 812 811 811 811 810 810 810 810 810 810 810 810 810 810
784 787 789 792 794 796 798 799 800 801 803 804 806 807 808 809 810 811 812 813 813 814 815 815 816 816 815 815 815 815 815 814 814 814 814 814 814 814 814 814 814 814 814 814 813 813 812 812 811 810 810 809 809 809 808 808 808 808 808 807 807 808
786 788 792 794 796 798 799 801 802 803 804 804 805 806 807 808 809 811 812 813 813 813 814 815 815 815 815 815 815 815 814 814 814 814 814 814 813 813 813 814 813 813 813 813 813 812 812 811 810 810 809 808 808 808 807 807 807 806 806 805 805 805
786 788 791 793 794 796 797 799 802 805 807 806 804 804 806 807 809 810 812 812 813 813 814 814 815 815 815 815 814 814 814 814 814 814 814 813 813 813 813 813 813 812 812 812 812 811 811 810 809 808 808 807 807 806 805 804 804 804 803 803 803 803
783 784 785 787 789 790 791 794 798 803 807 808 807 806 805 807 808 809 811 812 812 813 813 814 814 814 814 814 814 814 814 814 814 813 813 813 813 813 813 812 812 812 812 811 810 810 810 810 809 808 806 805 805 804 803 802 801 800 800 801 800 801
780 781 783 786 788 790 791 793 795 799 803 805 807 809 808 806 807 809 810 812 812 813 813 813 814 814 814 814 813 814 814 814 814 813 813 813 813 813 812 812 812 811 811 811 810 809 809 809 809 807 806 805 803 801 800 799 798 797 797 798 798 798
781 783 786 788 790 791 792 793 796 798 800 801 804 809 811 807 807 809 810 811 812 812 813 813 813 814 813 813 813 813 813 813 813 813 813 812 812 812 812 811 811 811 810 810 809 809 809 809 808 807 806 806 804 802 800 798 796 796 797 797 797 797
781 784 786 788 790 792 793 794 796 798 799 800 801 806 811 809 807 808 810 811 811 812 812 813 813 813 813 813 813 813 813 813 813 813 812 812 811 811 811 811 811 810 810 809 809 808 808 808 807 807 807 806 804 803 802 799 797 797 797 797 796 795
781 783 785 787 788 790 792 794 796 798 799 800 799 803 811 812 808 808 810 810 811 811 812 813 813 813 813 813 813 812 813 812 812 812 812 812 811 811 811 810 810 810 809 809 808 807 807 807 807 807 807 807 806 805 803 800 800 798 796 796 796 794
782 783 784 786 788 789 790 792 795 797 798 799 798 802 810 812 808 808 809 810 811 811 812 812 812 813 812 812 813 812 812 812 812 812 811 811 810 810 810 809 809 809 809 808 808 807 806 806 806 806 806 806 806 806 804 802 804 801 797 795 795 794
782 783 784 785 787 788 789 791 793 795 797 798 798 802 808 809 807 808 809 809 810 811 812 812 812 812 812 812 812 812 812 811 811 811 811 810 810 810 809 809 809 808 808 808 807 806 806 806 805 805 805 805 804 804 804 804 804 803 800 797 795 794
780 782 783 784 786 788 789 790 792 794 797 799 799 802 805 805 806 807 808 809 809 810 811 811 812 811 812 812 812 812 811 811 811 811 810 810 810 810 809 809 808 808 808 807 807 806 806 805 805 804 804 804 804 803 803 803 803 803 802 800 796 793
779 781 782 784 786 788 789 789 791 794 797 799 801 803 802 803 805 806 807 808 809 810 811 811 812 811 812 812 811 811 811 811 811 810 810 810 810 809 809 808 808 807 807 807 806 806 806 805 805 805 804 804 803 803 803 802 802 802 802 801 797 793
777 780 781 783 786 788 788 789 791 793 796 798 800 804 803 802 804 805 806 808 808 810 810 811 811 811 811 811 811 811 810 810 810 810 810 809 809 809 808 808 807 807 806 806 806 805 805 805 804 804 804 804 803 803 803 802 802 802 802 801 798 794
776 778 780 782 785 787 787 788 790 792 796 797 799 806 806 802 803 805 806 807 808 809 810 811 811 811 811 811 810 810 809 810 810 809 809 809 809 808 808 808 807 806 806 805 805 805 804 804 804 804 803 803 803 802 803 802 802 801 800 798 796 793
773 775 777 780 783 785 785 787 789 791 795 796 799 809 809 803 803 805 805 807 807 808 809 810 811 811 811 810 809 809 809 809 809 809 809 808 808 808 808 807 806 806 806 805 805 804 804 803 803 803 802 802 802 801 800 800 798 798 797 795 793 792
770 771 774 778 781 783 784 785 787 790 794 795 801 811 810 804 803 805 805 806 807 808 809 810 810 810 810 810 809 810 809 809 808 808 808 808 808 808 807 807 806 806 805 805 804 804 803 803 803 802 801 801 800 798 797 796 795 794 793 793 792 790
767 769 772 776 779 782 783 784 786 789 791 794 803 813 810 804 804 805 805 806 807 808 809 810 810 810 810 810 810 810 809 809 808 808 807 807 807 807 807 806 806 805 805 804 804 804 803 803 802 801 800 799 798 796 795 795 794 793 792 791 791 789
765 768 771 775 778 781 782 784 785 788 790 792 803 813 810 804 804 804 805 806 807 808 809 810 810 810 810 810 810 809 808 808 807 807 806 806 806 806 806 806 805 805 805 804 803 803 803 802 801 800 799 798 796 794 794 794 794 793 791 790 789 787
765 767 771 773 777 780 782 784 786 788 790 793 801 809 808 804 804 805 806 806 807 808 809 810 811 811 811 810 810 809 808 807 806 806 806 806 806 806 805 805 805 804 804 804 803 802 802 801 800 799 798 797 795 794 793 793 792 791 789 788 787 786
765 768 770 773 776 780 782 785 788 790 792 794 800 805 805 804 805 805 806 807 808 809 809 810 811 811 811 810 809 808 807 807 806 806 806 806 806 806 806 805 805 804 804 803 802 802 802 801 800 799 797 796 795 794 792 791 790 789 787 786 785 784